TimeEDT,TemperatureF,Dew PointF,Humidity,Sea Level PressureIn,VisibilityMPH,Wind Direction,Wind SpeedMPH,Gust SpeedMPH,PrecipitationIn,Events,Conditions,WindDirDegrees,DateUTC
12:15 AM,55.9,48.9,77,29.85,10.0,ESE,3.5,-,N/A,,Overcast,110,2013-04-29 04:15:00
12:35 AM,55.6,49.1,79,29.85,10.0,South,6.9,-,N/A,,Overcast,180,2013-04-29 04:35:00
12:55 AM,55.6,48.6,77,29.85,10.0,South,5.8,-,N/A,,Overcast,180,2013-04-29 04:55:00
1:15 AM,55.4,48.7,78,29.85,10.0,SSW,5.8,-,N/A,,Overcast,200,2013-04-29 05:15:00
1:35 AM,55.4,48.6,78,29.86,10.0,South,5.8,-,N/A,,Overcast,190,2013-04-29 05:35:00
2:15 AM,54.9,48.4,79,29.86,10.0,South,6.9,-,N/A,,Overcast,190,2013-04-29 06:15:00
2:35 AM,54.9,48.4,79,29.86,10.0,SSW,6.9,-,N/A,,Overcast,200,2013-04-29 06:35:00
2:55 AM,54.7,48.4,79,29.85,10.0,South,8.1,-,N/A,,Overcast,190,2013-04-29 06:55:00
3:15 AM,53.6,47.5,80,29.85,10.0,South,6.9,-,N/A,,Mostly Cloudy,190,2013-04-29 07:15:00
3:35 AM,51.4,48.4,89,29.84,10.0,SSE,4.6,-,N/A,,Clear,160,2013-04-29 07:35:00
3:55 AM,48.9,46.9,93,29.84,10.0,Calm,Calm,-,N/A,,Clear,0,2013-04-29 07:55:00
4:15 AM,48.2,46.6,94,29.85,7.0,Calm,Calm,-,N/A,,Clear,0,2013-04-29 08:15:00
4:35 AM,47.3,45.7,94,29.85,7.0,Calm,Calm,-,N/A,,Mostly Cloudy,0,2013-04-29 08:35:00
4:55 AM,47.5,45.9,94,29.85,7.0,Calm,Calm,-,N/A,,Mostly Cloudy,0,2013-04-29 08:55:00
5:15 AM,47.7,46.4,95,29.85,7.0,Calm,Calm,-,N/A,,Overcast,0,2013-04-29 09:15:00
5:35 AM,47.1,45.7,95,29.85,5.0,Calm,Calm,-,N/A,,Mostly Cloudy,0,2013-04-29 09:35:00
5:55 AM,45.1,43.7,95,29.85,4.0,Calm,Calm,-,N/A,,Clear,0,2013-04-29 09:55:00
6:15 AM,44.2,43.0,95,29.86,4.0,Calm,Calm,-,N/A,,Scattered Clouds,0,2013-04-29 10:15:00
6:35 AM,44.1,43.0,96,29.86,5.0,Calm,Calm,-,N/A,,Mostly Cloudy,0,2013-04-29 10:35:00
6:55 AM,45.5,44.6,97,29.87,7.0,Calm,Calm,-,N/A,,Overcast,0,2013-04-29 10:55:00
7:15 AM,46.9,45.7,95,29.88,5.0,Calm,Calm,-,N/A,,Overcast,0,2013-04-29 11:15:00
7:35 AM,48.2,46.8,95,29.89,7.0,Calm,Calm,-,N/A,,Overcast,0,2013-04-29 11:35:00
7:55 AM,51.3,50.0,95,29.89,1.8,SSW,5.8,-,N/A,,Overcast,200,2013-04-29 11:55:00
8:15 AM,51.8,50.9,97,29.90,1.5,SSE,5.8,-,N/A,,Overcast,160,2013-04-29 12:15:00
8:35 AM,52.2,51.1,96,29.90,2.0,Calm,Calm,-,N/A,,Overcast,0,2013-04-29 12:35:00
8:55 AM,53.6,51.8,94,29.90,4.0,SSE,4.6,-,N/A,,Overcast,160,2013-04-29 12:55:00
9:15 AM,55.2,51.6,88,29.90,7.0,South,5.8,-,N/A,,Overcast,170,2013-04-29 13:15:00
9:34 AM,57.2,51.3,81,29.89,10.0,ESE,5.8,-,N/A,,Scattered Clouds,120,2013-04-29 13:34:00
9:55 AM,57.9,51.8,80,29.89,10.0,ESE,8.1,-,N/A,,Clear,120,2013-04-29 13:55:00
10:15 AM,59.9,49.1,67,29.88,10.0,ESE,6.9,-,N/A,,Clear,120,2013-04-29 14:15:00
10:34 AM,61.9,49.5,64,29.88,10.0,ESE,9.2,-,N/A,,Clear,120,2013-04-29 14:34:00
10:55 AM,63.7,49.5,60,29.87,10.0,ESE,8.1,-,N/A,,Clear,120,2013-04-29 14:55:00
11:15 AM,64.8,49.3,57,29.87,10.0,ESE,5.8,-,N/A,,Clear,120,2013-04-29 15:15:00
11:34 AM,66.7,48.2,51,29.86,10.0,Calm,Calm,-,N/A,,Clear,0,2013-04-29 15:34:00
11:55 AM,68.5,46.4,45,29.87,10.0,WSW,4.6,-,N/A,,Clear,240,2013-04-29 15:55:00
12:15 PM,69.8,45.9,42,29.87,10.0,SSW,8.1,16.1,N/A,,Clear,200,2013-04-29 16:15:00
12:35 PM,70.7,45.0,40,29.86,10.0,Calm,Calm,-,N/A,,Clear,0,2013-04-29 16:35:00
12:55 PM,72.0,44.8,38,29.86,10.0,SSW,4.6,17.3,N/A,,Scattered Clouds,200,2013-04-29 16:55:00
1:14 PM,72.0,44.1,37,29.85,10.0,West,6.9,21.9,N/A,,Scattered Clouds,260,2013-04-29 17:14:00
1:35 PM,72.5,42.1,33,29.85,10.0,SW,8.1,16.1,N/A,,Mostly Cloudy,230,2013-04-29 17:35:00
1:55 PM,72.5,42.8,34,29.84,10.0,South,8.1,-,N/A,,Mostly Cloudy,190,2013-04-29 17:55:00
2:14 PM,73.8,41.4,31,29.84,10.0,South,4.6,19.6,N/A,,Scattered Clouds,180,2013-04-29 18:14:00
2:35 PM,73.4,41.9,32,29.84,10.0,SSW,8.1,-,N/A,,Scattered Clouds,210,2013-04-29 18:35:00
2:55 PM,72.7,42.3,33,29.83,10.0,South,6.9,19.6,N/A,,Mostly Cloudy,170,2013-04-29 18:55:00
3:15 PM,73.0,43.0,34,29.84,10.0,South,8.1,-,N/A,,Mostly Cloudy,170,2013-04-29 19:15:00
3:35 PM,72.5,42.3,34,29.84,10.0,South,10.4,20.7,N/A,,Overcast,170,2013-04-29 19:35:00
3:54 PM,72.5,40.6,32,29.84,10.0,SW,12.7,21.9,N/A,,Overcast,220,2013-04-29 19:54:00
4:15 PM,72.3,41.5,33,29.83,10.0,South,11.5,17.3,N/A,,Mostly Cloudy,170,2013-04-29 20:15:00
4:35 PM,72.5,40.5,31,29.83,10.0,SSW,15.0,21.9,N/A,,Mostly Cloudy,200,2013-04-29 20:35:00
4:54 PM,72.0,40.8,32,29.83,10.0,SSW,8.1,20.7,N/A,,Scattered Clouds,200,2013-04-29 20:54:00
5:15 PM,70.3,45.0,40,29.83,10.0,SW,6.9,20.7,N/A,,Mostly Cloudy,220,2013-04-29 21:15:00
5:35 PM,70.0,45.3,41,29.84,10.0,South,10.4,23.0,N/A,,Overcast,190,2013-04-29 21:35:00
5:54 PM,69.4,44.4,41,29.84,10.0,SSW,10.4,23.0,N/A,,Scattered Clouds,210,2013-04-29 21:54:00
6:15 PM,68.5,45.1,43,29.84,10.0,SSW,12.7,18.4,N/A,,Mostly Cloudy,200,2013-04-29 22:15:00
6:35 PM,68.0,45.9,45,29.85,10.0,WSW,11.5,18.4,N/A,,Mostly Cloudy,240,2013-04-29 22:35:00
6:54 PM,67.1,46.4,47,29.84,10.0,South,10.4,17.3,N/A,,Scattered Clouds,190,2013-04-29 22:54:00
7:15 PM,66.4,46.6,49,29.83,10.0,Calm,Calm,-,N/A,,Mostly Cloudy,0,2013-04-29 23:15:00
7:34 PM,66.2,47.1,50,29.83,10.0,SSE,4.6,-,N/A,,Overcast,150,2013-04-29 23:34:00
7:55 PM,65.5,47.1,51,29.84,10.0,SE,4.6,-,N/A,,Overcast,140,2013-04-29 23:55:00
8:15 PM,64.8,47.3,53,29.83,10.0,Calm,Calm,-,N/A,,Overcast,0,2013-04-30 00:15:00
8:34 PM,64.4,47.7,55,29.83,10.0,Calm,Calm,-,N/A,,Overcast,0,2013-04-30 00:34:00
8:55 PM,63.0,48.0,58,29.85,10.0,Calm,Calm,-,N/A,,Overcast,0,2013-04-30 00:55:00
9:15 PM,62.6,47.8,58,29.85,10.0,Calm,Calm,-,N/A,,Overcast,0,2013-04-30 01:15:00
9:34 PM,61.0,49.5,66,29.85,10.0,SE,3.5,-,N/A,,Overcast,130,2013-04-30 01:34:00
9:55 PM,59.9,50.7,72,29.86,10.0,Calm,Calm,-,N/A,,Overcast,0,2013-04-30 01:55:00
10:15 PM,59.9,49.8,69,29.86,10.0,Calm,Calm,-,N/A,,Overcast,0,2013-04-30 02:15:00
10:34 PM,59.2,50.9,74,29.87,10.0,Calm,Calm,-,N/A,Rain,Light Rain,0,2013-04-30 02:34:00
10:55 PM,57.9,52.2,81,29.87,10.0,Calm,Calm,-,N/A,,Overcast,0,2013-04-30 02:55:00
11:34 PM,59.2,50.2,72,29.85,10.0,ESE,12.7,-,N/A,Rain,Light Rain,110,2013-04-30 03:34:00
11:55 PM,60.1,49.8,69,29.85,10.0,SE,5.8,-,N/A,Rain,Light Rain,130,2013-04-30 03:55:00